Weather History for Key West, FL

Change the Weather History Date:

Friday, June 15, 2012

  Actual Average Record
Temperature  
Mean Temperature 84 °F 83 °F  
Max Temperature 89 °F 88 °F 95 °F (1880)
Min Temperature 79 °F 79 °F 69 °F (1930)
Degree Days  
Heating Degree Days 0 0  
Month to date heating degree days 0 0  
Since 1 June heating degree days 0 0  
Since 1 July heating degree days 28 73  
Cooling Degree Days 19 18  
Month to date cooling degree days 273 267  
Year to date cooling degree days 1963 1697  
Since 1 June cooling degree days 273 267  
Growing Degree Days 34 (Base 50)    
Moisture  
Dew Point 73 °F    
Average Humidity 74    
Maximum Humidity 85    
Minimum Humidity 63    
Precipitation  
Precipitation 0.00 in 0.14 in 3.57 in (1887)
Month to date precipitation 1.09 2.09  
Year to date precipitation 18.19 12.72  
Snow  
Snow 0.00 in - - ()
Month to date snowfall 0.0  
Since 1 June snowfall 0.0  
Since 1 July snowfall 0.0  
Snow Depth 0.00 in    
Sea Level Pressure  
Sea Level Pressure 29.99 in    
Wind  
Wind Speed 5 mph (NW)    
Max Wind Speed 12 mph    
Max Gust Speed 15 mph    
Visibility 10 miles    
Events      
T = Trace of Precipitation, MM = Missing Value Source: NWS Daily Summary

Daily Weather History Graph

Daily Weather History Graph

Search for Another Location

Airport:

Trip Planner

Search our weather history database for the weather conditions in past years. The results will help you decide how hot, cold, wet, or windy it might be!

Date:

Astronomy

Jun. 15, 2012 Rise Set
Actual Time 6:38 AM EDT 8:17 PM EDT
Civil Twilight 6:12 AM EDT 8:42 PM EDT
Nautical Twilight 5:41 AM EDT 9:13 PM EDT
Astronomical Twilight 5:09 AM EDT 9:45 PM EDT
Moon 3:37 AM EDT (6/15) 5:06 PM EDT (6/15)
Length of Visible Light 14h 30m
Length of Day
13h 39m
Waning Crescent, 14% of the Moon is Illuminated
Jun 15
Waning Crescent
Jun 19
New
Jun 26
First Quarter
Jul 3
Full
Jul 10
Last Quarter

Hourly Weather History & Observations

Time (EDT) Temp. Heat Index Dew Point Humidity Pressure Visibility Wind Dir Wind Speed Gust Speed Precip Events Conditions
12:53 AM 82.0 °F 87.4 °F 73.0 °F 74% 30.00 in 10.0 mi North 3.5 mph - N/A   Partly Cloudy
1:25 AM 82.4 °F 88.2 °F 73.4 °F 74% 30.00 in 10.0 mi NW 3.5 mph - N/A   Mostly Cloudy
1:45 AM 82.4 °F 88.2 °F 73.4 °F 74% 29.99 in 10.0 mi WNW 3.5 mph - N/A   Scattered Clouds
1:53 AM 82.0 °F 87.4 °F 73.0 °F 74% 29.99 in 10.0 mi WNW 3.5 mph - N/A   Partly Cloudy
2:42 AM 82.4 °F 88.2 °F 73.4 °F 74% 29.97 in 10.0 mi NNW 4.6 mph - N/A   Mostly Cloudy
2:50 AM 82.4 °F 88.2 °F 73.4 °F 74% 29.97 in 10.0 mi NW 5.8 mph - N/A   Scattered Clouds
2:53 AM 82.0 °F 87.4 °F 73.0 °F 74% 29.96 in 10.0 mi NNW 6.9 mph - N/A   Partly Cloudy
3:53 AM 82.0 °F 87.4 °F 73.0 °F 74% 29.96 in 10.0 mi Calm Calm - N/A   Partly Cloudy
4:53 AM 81.0 °F 85.2 °F 72.0 °F 74% 29.96 in 10.0 mi Calm Calm - N/A   Clear
5:53 AM 80.1 °F 84.5 °F 73.9 °F 81% 29.95 in 10.0 mi NW 3.5 mph - N/A   Clear
6:53 AM 79.0 °F - 73.0 °F 82% 29.95 in 10.0 mi Calm Calm - N/A   Clear
7:53 AM 82.4 °F 87.2 °F 71.6 °F 70% 29.96 in 10.0 mi NNW 4.6 mph - N/A   Clear
8:53 AM 82.9 °F 88.8 °F 73.0 °F 72% 29.99 in 10.0 mi NW 4.6 mph - N/A   Partly Cloudy
9:53 AM 84.0 °F 90.2 °F 73.0 °F 69% 29.99 in 10.0 mi North 6.9 mph - N/A   Partly Cloudy
10:53 AM 86.0 °F 93.0 °F 73.0 °F 65% 29.99 in 10.0 mi NNW 9.2 mph - N/A   Clear
11:53 AM 86.0 °F 93.0 °F 73.0 °F 65% 30.01 in 10.0 mi NNW 10.4 mph - N/A   Clear
12:53 PM 86.0 °F 93.0 °F 73.0 °F 65% 30.01 in 10.0 mi North 9.2 mph - N/A   Clear
1:53 PM 87.1 °F 94.5 °F 73.0 °F 63% 30.01 in 10.0 mi North 6.9 mph - N/A   Clear
2:53 PM 88.0 °F 96.5 °F 73.9 °F 63% 29.99 in 10.0 mi NNW 5.8 mph - N/A   Clear
3:53 PM 87.1 °F 96.3 °F 75.0 °F 67% 29.98 in 10.0 mi WNW 4.6 mph - N/A   Partly Cloudy
4:53 PM 88.0 °F 97.5 °F 75.0 °F 65% 29.97 in 10.0 mi North 9.2 mph - N/A   Partly Cloudy
5:53 PM 87.1 °F 96.3 °F 75.0 °F 67% 29.96 in 10.0 mi NNW 6.9 mph - N/A   Mostly Cloudy
6:00 PM 87.8 °F 97.6 °F 75.2 °F 66% 29.96 in 10.0 mi North 5.8 mph - N/A   Mostly Cloudy
6:53 PM 86.0 °F 93.0 °F 73.0 °F 65% 29.97 in 10.0 mi SW 6.9 mph - N/A   Overcast
7:17 PM 84.2 °F 89.6 °F 71.6 °F 66% 29.98 in 10.0 mi SW 8.1 mph - N/A   Overcast
7:53 PM 84.0 °F 89.6 °F 72.0 °F 67% 29.99 in 10.0 mi SW 6.9 mph - N/A   Clear
8:53 PM 84.0 °F 89.6 °F 72.0 °F 67% 30.01 in 10.0 mi WSW 5.8 mph - N/A   Clear
9:53 PM 82.9 °F 87.5 °F 71.1 °F 67% 30.00 in 10.0 mi West 4.6 mph - N/A   Clear
10:53 PM 82.9 °F 87.5 °F 71.1 °F 67% 30.02 in 10.0 mi Calm Calm - N/A   Clear
11:45 PM 82.4 °F 88.2 °F 73.4 °F 74% 30.01 in 10.0 mi NNW 3.5 mph - N/A   Mostly Cloudy
11:53 PM 82.9 °F 88.8 °F 73.0 °F 72% 30.01 in 10.0 mi WNW 4.6 mph - N/A   Mostly Cloudy